Regional Weather Roundup
Issued by NWS Sioux Falls, SD

Home | Current Version | Previous Version | Text Only | Print | Product List | Glossary On
Versions: 1 2 3 4 5 6 7 8 9 10 11 12 13 14 15 16 17 18 19 20 21 22 23 24 25 26 27 28 29 30 31 32 33 34 35 36 37 38 39 40 41 42 43 44 45 46 47 48 49 50
000
ASUS43 KFSD 260102
RWRFSD

WEATHER ROUNDUP FOR SE SOUTH DAKOTA/SW MINNESOTA/NW IOWA
NATIONAL WEATHER SERVICE SIOUX FALLS SD
800 PM CDT THU MAY 25 2017

NOTE: "FAIR" INDICATES FEW OR NO CLOUDS BELOW 12,000 FEET WITH NO
SIGNIFICANT WEATHER AND OR OBSTRUCTIONS TO VISIBILITY.


SDZ038>040-050-052>070-260200-
SOUTHEAST SOUTH DAKOTA

CITY           SKY/WX    TMP DP  RH WIND       PRES   REMARKS
BROOKINGS      MOCLDY    63  54  72 S8        29.57R
CHAMBERLAIN    NOT AVBL
HURON          PTCLDY    68  55  63 S8        29.53R
MADISON        FAIR      63  63 100 S7        29.57R
MITCHELL       PTCLDY    70  56  61 W6        29.56R
SIOUX FALLS    PTCLDY    69  53  56 S9        29.57R
WINNER         FAIR      72  50  45 CALM      29.59R
YANKTON        CLEAR     74  52  46 SW3       29.56R
$$

MNZ071-072-080-081-089-090-097-098-260200-
SOUTHWEST MINNESOTA

CITY           SKY/WX    TMP DP  RH WIND       PRES   REMARKS
FAIRMONT       CLOUDY    64  52  64 SE10      29.64R
JACKSON        CLOUDY    64  52  63 SE3       29.63S
LUVERNE        MOCLDY    68  46  45 S10       29.60R
MARSHALL       CLOUDY    63  56  78 SE10      29.58S
MONTEVIDEO     CLOUDY    63  55  77 S7        29.58R
PIPESTONE      MOCLDY    66  48  52 S13       29.58R
REDWOOD FALLS  CLOUDY    65  53  65 SE13      29.59S
TRACY          CLOUDY    65  57  74 SE8       29.59S
WINDOM         CLOUDY    64  52  63 SE9       29.62S
WORTHINGTON    CLOUDY    67  53  61 SE7       29.62R
$$

IAZ001>003-012>014-020>022-031-032-NEZ013-014-SDZ071-260200-
NORTHWEST IOWA

CITY           SKY/WX    TMP DP  RH WIND       PRES   REMARKS
CHEROKEE       CLOUDY    71  53  52 CALM      29.61R
DENISON        CLOUDY    70  52  52 SE5       29.62R
ESTHERVILLE    CLOUDY    62  57  83 E8        29.62R
LE MARS        PTCLDY    70  52  52 S8        29.59R
ORANGE CITY    CLEAR     70  52  52 S7        29.60R
SHELDON        MOCLDY    68  52  56 S6        29.59R
SIOUX CITY     CLOUDY    71  53  52 SE9       29.58R
SPENCER        MOCLDY    68  56  65 SE6       29.62R
STORM LAKE     CLOUDY    68  52  56 S6        29.62R
$$

ABBREVIATIONS USED IN REMARKS
   TC - TEMPERATURE IN CELSIUS
  WCI - WIND CHILL INDEX
   HX - HEAT INDEX
  VSB - VISIBILITY




USA.gov is the U.S. government's official web portal to all federal, state and local government web resources and services.